Location: Darlington Observatory
(36.4817°N, 105.8156°W)
Time: 05:01:23
(UTC-07:00)

Daily predictions for brighter satellites

Satellite Brightness Start Highest point End
(mag) Time Altitude Azimuth Time Altitude Azimuth Time Altitude Azimuth
USA 215 4.5 03:25:21 10° SE 03:28:43 33° ESE 03:28:43 33° ESE
SJ 16-02 3.3 04:00:37 26° ENE 04:00:37 26° ENE 04:02:58 10° NE
Cosmos 2239 Rocket 4.5 04:07:24 75° ENE 04:07:24 75° ENE 04:13:12 10° N
Cosmos 1980 Rocket 2.5 04:09:17 65° E 04:09:17 65° E 04:14:28 10° NNE
CZ-3 R/B 3.5 04:03:26 44° WSW 04:10:48 62° S 04:18:55 10° ESE
PAYLOAD B 4.4 04:09:18 10° NNE 04:14:47 69° ESE 04:15:15 65° SE
ATLAS 5 CENTAUR R/B 3.2 04:17:16 29° SE 04:18:05 31° ESE 04:22:15 10° NE
Cosmos 1933 4.2 04:29:47 49° E 04:29:49 49° E 04:33:45 10° NNE
Cosmos 158 Rocket 4.2 04:29:25 23° N 04:32:37 68° ENE 04:37:46 10° SSE
Cosmos 1707 Rocket 4.3 04:36:28 44° N 04:36:28 44° N 04:39:33 10° N
BREEZE-M DEB (TANK) 4.3 04:37:32 47° SSW 04:37:32 47° SSW 04:48:50 10° SE
Hubble Space Telescope 2.5 04:38:36 24° SSE 04:38:36 24° SSE 04:41:17 10° ESE
Cosmos 1697 Rocket 3.7 04:40:13 31° NNW 04:40:13 31° NNW 04:43:44 10° N
SL-16 R/B 3.3 04:39:47 10° S 04:45:05 43° ESE 04:50:24 10° NE
IDEFIX/ARIANE 42P 3.6 04:43:11 10° NNE 04:48:10 45° E 04:53:07 10° S
Cosmos 1048 Rocket 4.4 04:43:45 10° N 04:48:51 62° ENE 04:53:54 10° SSE
Cosmos 1934 Rocket 4.0 04:48:01 19° SSW 04:52:35 61° W 04:58:55 10° N
Cosmos 372 Rocket 3.8 04:52:18 51° SW 04:53:24 67° WNW 04:58:31 10° NNE
COSMOS 2455 3.3 04:48:05 10° NNW 04:54:04 61° ENE 05:00:00 10° SE
Okean O Rocket 2.9 04:51:33 10° N 04:53:52 27° NNW 04:53:52 27° NNW
CENTAUR R/B 4.2 05:00:22 22° SW 05:00:22 22° SW 05:04:36 10° SSW
CZ-4B R/B 4.3 04:53:48 10° N 04:57:30 48° NW 04:57:30 48° NW
USA 116 4.4 04:53:42 10° SSE 04:58:11 74° ENE 05:03:13 10° N
Aureole 1 Rocket 4.1 04:54:03 10° NNW 05:00:38 43° W 05:05:43 10° SSW
Cosmos 1125 Rocket 3.5 05:01:38 39° WSW 05:03:13 55° WNW 05:08:20 10° N
Cosmos 2123 Rocket 4.0 05:02:58 10° NNW 05:09:04 60° W 05:15:14 10° S
CZ-4B R/B 3.6 05:08:33 10° N 05:13:39 41° WNW 05:16:52 21° SW
Lacrosse 5 rocket 2.0 05:14:00 34° SW 05:14:00 34° SW 05:17:28 10° S
USA 215 4.2 05:10:01 10° S 05:15:13 25° WSW 05:16:08 24° WSW
OAO 3 Rocket 4.3 05:15:07 26° SW 05:16:19 29° SSW 05:20:35 10° SE
Cosmos 2242 Rocket 3.5 05:12:10 10° S 05:16:43 79° W 05:21:19 10° N
Cosmos 405 Rocket 2.7 05:20:26 10° SSW 05:24:21 61° W 05:28:13 10° N
SEDSat Delta rocket 3.8 05:23:18 25° WSW 05:25:40 43° S 05:29:52 10° ESE
Cosmos 1633 4.0 05:22:35 10° N 05:26:04 41° E 05:29:31 10° SSE
Cosmos 2263 Rocket 3.1 05:22:36 10° N 05:28:07 50° ENE 05:33:36 10° SE
Cosmos 1153 Rocket 4.4 05:22:59 10° SSW 05:29:03 69° W 05:35:14 10° N
Cosmos 1461 4.3 05:27:01 10° S 05:31:01 41° ESE 05:35:14 10° NE
CZ-2C R/B 2.6 05:26:05 10° NNE 05:31:14 83° ESE 05:36:25 10° S
Cosmos 1908 Rocket 4.5 05:33:14 10° N 05:37:31 51° E 05:41:44 10° SSE
SJ 16-02 2.8 05:37:40 18° WNW 05:37:40 18° WNW 05:40:39 10° NNW
Cosmos 1862 Rocket 3.7 05:37:12 10° SSW 05:41:22 47° W 05:45:37 10° N
Cosmos 1733 Rocket 3.1 05:37:13 10° NNW 05:41:31 53° W 05:45:47 10° S
Cosmos 2322 Rocket 2.2 05:36:55 10° SSW 05:42:31 62° WNW 05:48:11 10° NNE
BREEZE-M R/B 4.2 05:36:32 10° SW 05:43:07 78° NW 05:49:38 10° NE
Cosmos 494 Rocket 4.2 05:39:13 10° NNW 05:44:20 74° ENE 05:49:26 10° SSE
Milstar 3 Cent rocket 4.4 05:39:50 10° SW 05:45:07 32° SSE 05:53:57 10° E
EO 1 Del DPAF 3.4 05:42:52 10° SSE 05:46:41 76° ENE 05:50:31 10° N
Radarsat Rocket 4.0 05:42:16 10° N 05:48:06 72° WNW 05:54:23 10° SSW
COSMO-SKYMED 1 2.8 05:45:53 10° S 05:50:01 45° W 05:54:12 10° NNW
Landsat 4 3.6 05:46:46 10° S 05:50:27 71° WSW 05:54:10 10° NNW
Cosmos 2360 Rocket 2.8 05:45:10 10° S 05:50:44 63° ESE 05:56:21 10° NNE
Cosmos 1269 Rocket 4.4 05:46:29 10° NNW 05:51:27 43° WSW 05:56:24 10° S
CZ-2C R/B 4.4 05:47:23 10° SSW 05:51:36 33° W 05:55:46 10° NNW
Cosmos 1980 Rocket 3.7 05:51:06 14° W 05:53:22 17° NW 05:56:54 10° NNW
Okean-O 3.0 05:50:06 10° N 05:54:19 43° WNW 05:58:29 10° SW
Okean 1-7 3.9 05:50:36 10° S 05:54:48 55° E 05:59:03 10° NNE
Meteor 1-25 Rocket 4.2 05:49:20 10° NNW 05:55:04 75° W 06:00:51 10° S
Cosmos 405 4.2 05:55:30 10° NW 05:58:16 21° W 06:01:02 10° SW
ATLAS 5 CENTAUR R/B 2.8 05:58:54 10° WSW 06:02:42 26° NW 06:06:50 10° N
Cosmos 2100 Rocket 4.1 06:03:34 10° SSW 06:09:32 52° W 06:15:31 10° N
